Location: Great Snoring
(52.8667°N, 0.8833°E)
Time: 01:40:43
(UTC+00:00)

ACS3 Solar Sail - Visible Passes

Search period start: 19 January 2026 00:00
Search period end: 29 January 2026 00:00
Orbit: 898 x 978 km, 97.2° (Epoch: 18 January)

Date Brightness Start Highest point End Pass type
(mag) Time Alt. Az. Time Alt. Az. Time Alt. Az.
19 Jan 4.1 03:47:17 10° N 03:47:44 12° N 03:47:44 12° N visible
20 Jan 4.0 04:01:19 10° N 04:01:48 12° N 04:01:48 12° N visible
21 Jan 4.5 02:31:56 10° NNE 02:32:00 10° NNE 02:32:00 10° NNE visible
21 Jan 4.0 04:15:23 10° N 04:15:52 12° N 04:15:52 12° N visible
22 Jan 4.4 02:45:48 10° NNE 02:46:03 11° NNE 02:46:03 11° NNE visible
22 Jan 4.0 04:29:30 10° N 04:29:55 11° N 04:29:55 11° N visible
23 Jan 4.3 02:59:41 10° N 03:00:06 12° N 03:00:06 12° N visible
23 Jan 4.0 04:43:40 10° NNW 04:43:57 11° NNW 04:43:57 11° NNW visible
24 Jan 4.2 03:13:35 10° N 03:14:08 13° N 03:14:08 13° N visible
24 Jan 4.0 04:57:59 10° NNW 04:58:00 10° NNW 04:58:00 10° NNW visible
25 Jan 4.1 03:27:30 10° N 03:28:09 13° N 03:28:09 13° N visible
26 Jan 4.0 03:41:28 10° N 03:42:10 13° N 03:42:10 13° N visible
27 Jan 4.5 02:12:11 10° NNE 02:12:19 11° NNE 02:12:19 11° NNE visible
27 Jan 4.0 03:55:25 10° N 03:56:10 13° N 03:56:10 13° N visible
28 Jan 4.4 02:25:57 10° NNE 02:26:19 12° NNE 02:26:19 12° NNE visible
28 Jan 3.9 04:09:26 10° N 04:10:11 13° N 04:10:11 13° N visible
